Weather History for Winston-Salem, NC

Change the Weather History Date:

Friday, April 5, 2013

  Actual Average Record
Temperature  
Mean Temperature 49 °F -  
Max Temperature 64 °F 65 °F 82 °F (1985)
Min Temperature 35 °F 45 °F 28 °F (1972)
Degree Days  
Heating Degree Days 16    
Moisture  
Dew Point 36 °F    
Average Humidity 71    
Maximum Humidity 100    
Minimum Humidity 28    
Precipitation  
Precipitation 0.01 in - - ()
Sea Level Pressure  
Sea Level Pressure 29.96 in    
Wind  
Wind Speed 6 mph (NNW)    
Max Wind Speed 13 mph    
Max Gust Speed 17 mph    
Visibility 10 miles    
Events Rain    
Averages and records for this station are not official NWS values.
T = Trace of Precipitation, MM = Missing Value Source: NWS Daily Summary

Daily Weather History Graph

Daily Weather History Graph

Search for Another Location

Airport:

Trip Planner

Search our weather history database for the weather conditions in past years. The results will help you decide how hot, cold, wet, or windy it might be!

Date:

Astronomy

Apr. 05, 2013 Rise Set
Actual Time 7:01 AM EDT 7:46 PM EDT
Civil Twilight 6:35 AM EDT 8:12 PM EDT
Nautical Twilight 6:04 AM EDT 8:43 PM EDT
Astronomical Twilight 5:32 AM EDT 9:14 PM EDT
Moon 3:58 AM EDT (4/5) 3:16 PM EDT (4/5)
Length of Visible Light 13h 37m
Length of Day
12h 45m
Waning Crescent, 24% of the Moon is Illuminated
Apr 5
Waning Crescent
Apr 10
New
Apr 18
First Quarter
Apr 25
Full
May 2
Last Quarter

Hourly Weather History & Observations

Time (EDT) Temp. Windchill Dew Point Humidity Pressure Visibility Wind Dir Wind Speed Gust Speed Precip Events Conditions
12:54 AM 35.1 °F 29.3 °F 33.1 °F 92% 29.97 in - NNE 6.9 mph - 0.01 in Rain Light Rain
1:54 AM 35.1 °F 28.6 °F 34.0 °F 96% 29.96 in - North 8.1 mph - 0.00 in   Overcast
2:46 AM 35.6 °F 30.7 °F 35.6 °F 100% 29.93 in - North 5.8 mph - N/A   Overcast
2:54 AM 36.0 °F 30.3 °F 35.1 °F 97% 29.94 in - North 6.9 mph - N/A   Overcast
3:54 AM 37.0 °F 31.6 °F 36.0 °F 96% 29.95 in - North 6.9 mph - N/A   Overcast
4:22 AM 37.4 °F 34.9 °F 35.6 °F 93% 29.94 in - North 3.5 mph - N/A   Overcast
4:54 AM 37.9 °F 33.5 °F 36.0 °F 93% 29.95 in - North 5.8 mph - N/A   Overcast
5:41 AM 37.4 °F 32.8 °F 37.4 °F 100% 29.93 in - North 5.8 mph - N/A   Overcast
5:54 AM 37.9 °F 32.7 °F 37.0 °F 97% 29.94 in - North 6.9 mph - N/A   Overcast
6:47 AM 39.2 °F - 37.4 °F 93% 29.93 in - Calm Calm - N/A   Overcast
6:54 AM 39.0 °F 35.7 °F 37.9 °F 96% 29.94 in - NNW 4.6 mph - N/A   Overcast
7:54 AM 39.9 °F - 39.0 °F 97% 29.98 in - Calm Calm - N/A   Overcast
8:11 AM 41.0 °F - 39.2 °F 93% 29.97 in - Calm Calm - N/A   Overcast
8:33 AM 42.8 °F - 39.2 °F 87% 29.97 in - Calm Calm - N/A   Overcast
8:54 AM 43.0 °F 39.5 °F 41.0 °F 93% 29.98 in - NW 5.8 mph - N/A   Overcast
9:54 AM 45.0 °F 41.8 °F 41.0 °F 86% 29.99 in - NW 5.8 mph - N/A   Overcast
10:54 AM 51.1 °F - 42.1 °F 71% 29.99 in - NW 8.1 mph - N/A   Overcast
11:54 AM 55.0 °F - 42.1 °F 62% 29.98 in 10.0 mi North 12.7 mph 16.1 mph N/A   Scattered Clouds
12:54 PM 57.0 °F - 41.0 °F 55% 29.96 in 10.0 mi Variable 6.9 mph - N/A   Partly Cloudy
1:54 PM 60.1 °F - 39.9 °F 47% 29.94 in 10.0 mi NW 8.1 mph - N/A   Partly Cloudy
2:54 PM 61.0 °F - 39.0 °F 44% 29.92 in 10.0 mi Calm Calm - N/A   Partly Cloudy
3:54 PM 63.0 °F - 33.1 °F 33% 29.91 in 10.0 mi NNW 8.1 mph - N/A   Clear
4:54 PM 63.0 °F - 30.0 °F 29% 29.91 in 10.0 mi Variable 6.9 mph 17.3 mph N/A   Clear
5:54 PM 63.0 °F - 28.9 °F 28% 29.93 in 10.0 mi NW 10.4 mph 17.3 mph N/A   Clear
6:54 PM 61.0 °F - 30.0 °F 31% 29.95 in 10.0 mi WNW 9.2 mph - N/A   Clear
7:54 PM 59.0 °F - 30.9 °F 35% 29.97 in 10.0 mi NW 5.8 mph - N/A   Clear
8:54 PM 57.0 °F - 32.0 °F 39% 30.00 in 10.0 mi Calm Calm - N/A   Clear
9:54 PM 55.9 °F - 32.0 °F 40% 30.02 in 10.0 mi WNW 4.6 mph - N/A   Clear
10:54 PM 51.1 °F - 34.0 °F 52% 30.04 in 10.0 mi NNW 6.9 mph - N/A   Clear
11:54 PM 52.0 °F - 32.0 °F 47% 30.05 in 10.0 mi NW 3.5 mph - N/A   Clear